DateTimeUTC,F1_A11,F1_S11,BsB_S11,BsG_S11,BsR_S11,BbsB_S11,BbsG_S11,BbsR_S11,BaB_A11,BaG_A11,BaR_A11,Tu_S11,T_S11,Uu_S11,U_S11,P_S11,T1_A11
2021-09-16T19:00:00Z,00000200,21000000,,,,,,,-000.28,-000.42,-000.01,18.5,25.8,,00.0,0658.7,31.1
2021-09-16T19:01:00Z,00000200,21000000,,,,,,,-000.12,-000.36,-000.51,18.5,25.8,,00.0,0658.7,31.1
2021-09-16T19:02:00Z,00000200,21000000,,,,,,,-000.27,-000.06,-000.09,18.5,25.8,,00.0,0658.7,31.1
2021-09-16T19:03:00Z,00000200,61000000,,,,,,,-000.06,0000.39,-000.10,18.5,25.8,,00.0,0658.7,31.1
2021-09-16T19:04:00Z,00000200,41000000,0003.52,0001.76,0001.29,0000.69,0000.10,0000.26,0000.19,-000.10,0000.36,18.6,25.6,,00.0,0659.6,31.1
2021-09-16T19:05:00Z,00000200,01000000,0003.67,0001.98,0001.21,0000.90,0000.41,-000.05,0000.31,0000.30,0000.28,18.7,25.6,,00.0,0659.7,31.1
2021-09-16T19:06:00Z,00000200,01000000,0002.84,0001.80,0001.08,-000.25,0000.13,0000.17,0000.27,-000.01,0000.25,18.7,25.6,,00.0,0659.7,31.1
2021-09-16T19:07:00Z,00000200,01000000,0003.59,0002.11,0001.38,0000.37,0000.05,0000.08,0000.09,-000.10,-000.38,18.6,25.5,,00.0,0659.7,31.1
2021-09-16T19:08:00Z,00000200,01000000,0003.76,0002.64,0001.32,0000.67,0000.05,0000.10,0000.09,0000.13,0000.12,18.6,25.5,,00.0,0659.7,31.1
2021-09-16T19:09:00Z,00000200,01000000,0002.81,0001.98,0001.89,0000.52,0000.08,0000.22,-000.01,-000.11,-000.17,18.6,25.5,,00.0,0659.7,31.0
2021-09-16T19:10:00Z,00000200,01000000,0003.86,0002.26,0001.51,-000.07,0000.33,0000.42,-000.05,0000.10,0000.59,18.6,25.5,,00.0,0659.7,31.0
2021-09-16T19:11:00Z,00000200,01000000,0003.71,0002.51,0001.43,0000.30,0000.44,0000.16,-000.12,-000.17,-000.75,18.5,25.5,,00.0,0659.7,31.0
2021-09-16T19:12:00Z,00000200,01000000,0003.50,0002.27,0001.14,0000.44,0000.10,-000.04,0000.25,-000.07,0000.47,18.5,25.4,,00.0,0659.7,31.1
2021-09-16T19:13:00Z,00000200,01000000,0005.33,0002.85,0001.74,-000.23,0000.48,0000.44,0000.03,0000.29,0000.05,18.5,25.4,,00.0,0659.8,31.0
2021-09-16T19:14:00Z,00000200,01000000,0004.18,0002.38,0001.59,0000.45,0000.24,0000.03,0000.02,0000.21,-000.12,18.5,25.4,,00.0,0659.8,31.0
2021-09-16T19:15:00Z,00000200,01000000,0003.58,0002.39,0001.31,0000.28,0000.55,0000.08,0000.42,0000.09,0000.49,18.5,25.4,,00.0,0659.8,31.0
2021-09-16T19:16:00Z,00000200,01000000,0004.28,0002.23,0001.41,0000.27,0000.68,0000.12,0000.33,0000.15,-000.04,18.4,25.4,,00.0,0659.8,31.0
2021-09-16T19:17:00Z,00000200,01000000,0003.75,0002.38,0001.56,0000.26,0000.52,0000.30,0000.13,0000.38,0000.40,18.4,25.4,,00.0,0659.8,31.0
2021-09-16T19:18:00Z,00000200,01000000,0003.30,0002.10,0001.33,0000.22,0000.54,-000.19,0000.15,-000.32,0000.00,18.4,25.4,,00.0,0659.8,31.0
2021-09-16T19:19:00Z,00000200,01000000,0005.17,0002.72,0001.52,0000.80,0000.16,0000.16,0000.36,0000.51,0000.49,18.4,25.3,,00.0,0659.8,31.0
2021-09-16T19:20:00Z,00000200,01000000,0004.79,0003.00,0001.96,0000.38,0000.25,0000.33,0000.29,0000.25,-000.37,18.3,25.3,,00.0,0659.8,31.0
2021-09-16T19:21:00Z,00000200,01000000,0005.56,0003.16,0001.27,0000.39,0000.24,0000.03,-000.12,0000.28,-000.10,18.3,25.3,,00.0,0659.8,31.0
2021-09-16T19:22:00Z,00000200,01000000,0005.36,0003.56,0002.45,0000.37,0000.60,-000.01,0000.35,0000.01,0000.41,18.3,25.3,,00.0,0659.8,31.0
2021-09-16T19:23:00Z,00000200,01000000,0005.31,0003.62,0002.20,0000.87,0000.46,0000.36,-000.08,-000.14,-000.13,18.3,25.3,,00.0,0659.8,31.0
2021-09-16T19:24:00Z,00000200,01000000,0005.72,0004.41,0002.74,-000.03,0000.47,0000.49,0000.53,0000.88,0000.63,18.3,25.3,,00.0,0659.8,31.0
2021-09-16T19:25:00Z,00000200,01000000,0005.76,0004.28,0002.71,0000.90,0000.67,0000.60,0000.43,0000.36,0000.50,18.3,25.2,,00.0,0659.8,31.0
2021-09-16T19:26:00Z,00000200,01000000,0006.01,0004.50,0002.56,0000.60,0000.51,0000.19,0000.81,0000.45,0000.44,18.4,25.3,,00.0,0659.8,31.1
2021-09-16T19:27:00Z,00000200,01000000,0006.32,0004.13,0002.76,0000.92,0000.43,0000.27,0000.06,0000.31,0000.21,18.5,25.3,,00.0,0659.9,31.1
2021-09-16T19:28:00Z,00000200,01000000,0005.99,0004.13,0003.02,0001.44,0000.59,0000.38,0000.41,0000.52,0000.65,18.6,25.4,,00.0,0659.9,31.1
2021-09-16T19:29:00Z,00000200,01000000,0006.19,0003.82,0002.31,0000.25,0000.49,0000.08,0000.81,0000.42,0000.31,18.7,25.5,,00.0,0659.9,31.1
2021-09-16T19:30:00Z,00000200,01000000,0006.15,0003.65,0002.25,0000.66,0000.24,0000.06,0000.13,0000.30,0000.12,18.8,25.5,,00.0,0659.9,31.2
2021-09-16T19:31:00Z,00000200,01000000,0005.19,0003.90,0002.40,0000.19,0000.49,0000.15,0000.40,0000.10,0000.39,18.8,25.6,,00.0,0659.9,31.2
2021-09-16T19:32:00Z,00000200,01000000,0005.90,0003.96,0002.21,0000.54,0000.73,0000.33,0000.07,0000.35,-000.24,18.8,25.5,,00.0,0659.8,31.1
2021-09-16T19:33:00Z,00000200,01000000,0005.81,0003.98,0002.41,-000.02,0000.20,0000.27,0000.07,-000.32,-000.01,18.8,25.5,,00.0,0659.8,31.1
2021-09-16T19:34:00Z,00000200,01000000,0005.59,0003.58,0002.22,0001.04,0000.25,0000.06,0000.50,0000.42,0000.15,18.8,25.5,,00.0,0659.8,31.1
2021-09-16T19:35:00Z,00000200,01000000,0005.89,0003.75,0002.23,0000.20,0000.30,0000.26,0000.40,0000.41,0000.25,18.7,25.5,,00.0,0659.8,31.1
2021-09-16T19:36:00Z,00000200,01000000,0005.44,0003.56,0002.59,0000.73,0000.36,0000.18,0000.40,0000.35,0000.39,18.7,25.5,,00.0,0659.8,31.1
2021-09-16T19:37:00Z,00000200,01000000,0006.33,0003.57,0002.50,0000.76,0000.47,0000.50,0000.30,0000.24,-000.38,18.6,25.5,,00.0,0659.8,31.1
2021-09-16T19:38:00Z,00000200,01000000,0005.78,0003.64,0002.23,0000.81,0000.53,0000.54,0000.40,0000.51,0000.71,18.6,25.5,,00.0,0659.8,31.1
2021-09-16T19:39:00Z,00000200,01000000,0005.06,0003.85,0002.42,0000.39,0000.34,0000.26,0000.33,-000.12,0000.36,18.6,25.4,,00.0,0659.8,31.1
2021-09-16T19:40:00Z,00000200,01000000,0005.27,0003.26,0002.20,0000.87,0000.17,0000.13,0000.47,0000.65,0000.60,18.6,25.5,,00.0,0659.8,31.1
2021-09-16T19:41:00Z,00000200,01000000,0004.70,0003.59,0002.41,0001.01,0000.03,0000.26,0000.18,0000.29,0000.10,18.7,25.5,,00.0,0659.8,31.1
2021-09-16T19:42:00Z,00000200,01000000,0005.28,0003.67,0002.48,0000.42,0000.26,0000.20,0000.60,0000.77,0000.26,18.7,25.5,,00.0,0659.8,31.1
2021-09-16T19:43:00Z,00000200,01000000,0005.15,0003.89,0002.87,0000.66,0000.42,0000.28,0000.31,-000.25,0000.25,18.8,25.5,,00.0,0659.9,31.1
2021-09-16T19:44:00Z,00000200,01000000,0006.16,0003.77,0002.39,0000.34,0000.44,0000.04,0000.53,0000.26,0000.12,18.8,25.5,,00.0,0659.9,31.1
2021-09-16T19:45:00Z,00000200,01000000,0005.75,0003.87,0002.16,0000.53,0000.23,0000.47,-000.18,0000.35,-000.22,18.7,25.5,,00.0,0659.9,31.1
2021-09-16T19:46:00Z,00000200,01000000,0005.50,0003.88,0001.98,0000.64,0000.60,0000.09,0000.11,-000.05,0000.14,18.7,25.5,,00.0,0659.9,31.1
2021-09-16T19:47:00Z,00000200,01000000,0004.83,0004.15,0002.11,0000.18,0000.17,0000.10,0000.76,0000.38,0000.41,18.7,25.5,,00.0,0659.8,31.1
2021-09-16T19:48:00Z,00000200,01000000,0004.71,0003.92,0002.40,0000.77,0000.45,0000.04,-000.01,0000.34,-000.15,18.6,25.5,,00.0,0659.9,31.1
2021-09-16T19:49:00Z,00000200,01000000,0005.23,0003.85,0002.04,0000.80,0000.28,0000.36,0000.37,0000.18,0000.61,18.6,25.5,,00.0,0659.8,31.1
2021-09-16T19:50:00Z,00000200,01000000,0005.47,0003.71,0002.31,0000.63,0000.39,0000.24,0000.32,0000.45,0000.34,18.6,25.4,,00.0,0659.8,31.1
2021-09-16T19:51:00Z,00000200,01000000,0005.14,0003.74,0002.32,0000.67,0000.36,0000.28,0000.65,0000.16,-000.05,18.5,25.4,,00.0,0659.8,31.1
2021-09-16T19:52:00Z,00000200,01000000,0005.21,0003.79,0002.18,0000.61,0000.12,-000.08,0000.17,0000.54,0000.32,18.5,25.4,,00.0,0659.8,31.0
2021-09-16T19:53:00Z,00000200,01000000,0004.92,0003.61,0002.16,0000.77,0000.11,0000.17,0000.16,0000.09,0000.13,18.5,25.4,,00.0,0659.8,31.0
2021-09-16T19:54:00Z,00000200,01000000,0004.73,0003.52,0002.17,0000.56,0000.34,0000.31,0000.99,0000.30,0000.47,18.4,25.4,,00.0,0659.8,31.0
2021-09-16T19:55:00Z,00000200,01000000,0005.33,0003.61,0002.07,0000.76,0000.39,0000.36,0000.28,0000.18,0000.53,18.5,25.4,,00.0,0659.8,31.1
2021-09-16T19:56:00Z,00000200,01000000,0004.63,0003.35,0002.10,0000.80,0000.36,0000.13,0000.39,0001.15,0000.30,18.6,25.4,,00.0,0659.8,31.1
2021-09-16T19:57:00Z,00000200,41000000,,,,,,,0002.00,0001.41,0001.52,18.7,25.5,,00.0,0659.7,31.1
2021-09-16T19:58:00Z,00000200,61000000,,,,,,,-000.67,-000.44,-000.62,18.3,25.7,,00.0,0658.9,31.1
2021-09-16T19:59:00Z,00000200,21000000,,,,,,,-000.54,-000.57,-000.34,18.3,25.8,,00.0,0658.9,31.1
